PE4KH-1 Weather Reports


Display with metric or nautical units.
time (UTC)temp
F
wind
direction
speed
MPH
gust
MPH
rain 1hr
in
rain 24hr
in
rain mn
in
humidity
%
barometer
mb
20170627121305 77 0.0 0.0 0.00 0.00 0.00 44 1000.2
20170627120304 77 0.0 0.0 0.00 0.00 0.00 45 1000.2
20170627115302 78 0.0 0.0 0.00 0.00 0.00 43 1000.2
20170627114305 78 0.0 0.0 0.00 0.00 0.00 44 1000.4
20170627113303 78 0.0 0.0 0.00 0.00 0.00 43 1000.4
20170627112306 78 0.0 0.0 0.00 0.00 0.00 44 1000.6
20170627111309 78 0.0 0.0 0.00 0.00 0.00 43 1000.6
20170627110306 78 0.0 0.0 0.00 0.00 0.00 41 1000.8
20170627105305 79 0.0 0.0 0.00 0.00 0.00 42 1000.8
20170627104306 78 0.0 0.0 0.00 0.00 0.00 42 1000.8
20170627103303 78 0.0 0.0 0.00 0.00 0.00 42 1001.3
20170627102306 78 0.0 0.0 0.00 0.00 0.00 41 1001.3
20170627101302 79 0.0 0.0 0.00 0.00 0.00 40 1001.3
20170627100303 79 0.0 0.0 0.00 0.00 0.00 39 1001.3
20170627095305 79 0.0 0.0 0.00 0.00 0.00 40 1001.5
20170627094306 78 0.0 0.0 0.00 0.00 0.00 41 1001.5
20170627093303 77 0.0 0.0 0.00 0.00 0.00 42 1001.7
20170627092305 77 0.0 0.0 0.00 0.00 0.00 43 1001.7
20170627091305 76 0.0 0.0 0.00 0.00 0.00 44 1001.9
20170627090303 74 0.0 0.0 0.00 0.00 0.00 46 1001.9
20170627085305 73 0.0 0.0 0.00 0.00 0.00 46 1002.2
20170627084305 72 0.0 0.0 0.00 0.00 0.00 48 1002.2
20170627083302 71 0.0 0.0 0.00 0.00 0.00 50 1002.2
20170627082303 71 0.0 0.0 0.00 0.00 0.00 50 1002.4
20170627081305 70 0.0 0.0 0.00 0.00 0.00 50 1002.6
20170627080303 69 0.0 0.0 0.00 0.00 0.00 53 1002.4
20170627075306 68 0.0 0.0 0.00 0.00 0.00 55 1002.6
20170627074305 67 0.0 0.0 0.00 0.00 0.00 55 1002.8
20170627073304 66 0.0 0.0 0.00 0.00 0.00 57 1003.0
20170627072306 66 0.0 0.0 0.00 0.00 0.00 56 1003.0
20170627071304 66 0.0 0.0 0.00 0.00 0.00 58 1003.0
20170627070302 65 0.0 0.0 0.00 0.00 0.00 59 1003.0
20170627065304 65 0.0 0.0 0.00 0.00 0.00 59 1003.0
20170627064305 65 0.0 0.0 0.00 0.00 0.00 58 1003.0
20170627063305 64 0.0 0.0 0.00 0.00 0.00 58 1003.0
20170627062305 64 0.0 0.0 0.00 0.00 0.00 59 1003.0
20170627061302 64 0.0 0.0 0.00 0.00 0.00 60 1003.0
20170627060305 63 0.0 0.0 0.00 0.00 0.00 62 1003.0
20170627055305 63 0.0 0.0 0.00 0.00 0.00 62 1003.0
20170627054305 62 0.0 0.0 0.00 0.00 0.00 63 1003.0
20170627053304 62 0.0 0.0 0.00 0.00 0.00 64 1003.3
20170627052302 62 0.0 0.0 0.00 0.00 0.00 64 1003.5
20170627051305 62 0.0 0.0 0.00 0.00 0.00 64 1003.3
20170627050303 62 0.0 0.0 0.00 0.00 0.00 64 1003.5
20170627045305 61 0.0 0.0 0.00 0.00 0.00 64 1003.5
20170627044306 61 0.0 0.0 0.00 0.00 0.00 64 1003.7
20170627043306 61 0.0 0.0 0.00 0.00 0.00 64 1003.7
20170627042304 61 0.0 0.0 0.00 0.00 0.00 65 1003.5
20170627041303 61 0.0 0.0 0.00 0.00 0.00 64 1003.9
20170627040304 61 0.0 0.0 0.00 0.00 0.00 64 1003.9
20170627035303 61 0.0 0.0 0.00 0.00 0.00 64 1003.9
20170627034306 61 0.0 0.0 0.00 0.00 0.00 64 1004.4
20170627033304 61 0.0 0.0 0.00 0.00 0.00 65 1004.4
20170627032306 61 0.0 0.0 0.00 0.00 0.00 64 1004.4
20170627031306 62 0.0 0.0 0.00 0.00 0.00 64 1004.4
20170627030304 62 0.0 0.0 0.00 0.00 0.00 64 1004.6
20170627025307 62 0.0 0.0 0.00 0.00 0.00 64 1004.8
20170627024305 62 0.0 0.0 0.00 0.00 0.00 64 1004.6
20170627023303 62 0.0 0.0 0.00 0.00 0.00 64 1004.8
20170627022306 62 0.0 0.0 0.00 0.00 0.00 63 1004.6
20170627021304 62 0.0 0.0 0.00 0.00 0.00 63 1004.8
20170627020306 63 0.0 0.0 0.00 0.00 0.00 63 1004.8
20170627015303 63 0.0 0.0 0.00 0.00 0.00 62 1004.8
20170627014304 63 0.0 0.0 0.00 0.00 0.00 62 1005.0
20170627013303 63 0.0 0.0 0.00 0.00 0.00 62 1005.0
20170627012304 63 0.0 0.0 0.00 0.00 0.00 63 1005.0
20170627011302 63 0.0 0.0 0.00 0.00 0.00 63 1005.0
20170627010305 63 0.0 0.0 0.00 0.00 0.00 64 1005.0
20170627005302 63 0.0 0.0 0.00 0.00 0.00 64 1005.0
20170627004305 63 0.0 0.0 0.00 0.00 0.00 65 1005.3
20170627003303 63 0.0 0.0 0.00 0.00 0.00 66 1005.3
20170627002302 63 0.0 0.0 0.00 0.00 0.00 65 1005.3
20170627001305 63 0.0 0.0 0.00 0.00 0.00 65 1005.3
20170627000303 64 0.0 0.0 0.00 0.00 0.00 65 1005.3
20170626235305 64 0.0 0.0 0.00 0.00 0.00 65 1005.5
20170626234304 64 0.0 0.0 0.00 0.00 0.00 65 1005.5
20170626233306 64 0.0 0.0 0.00 0.00 0.00 65 1005.5
20170626232304 64 0.0 0.0 0.00 0.00 0.00 64 1005.5
20170626231304 65 0.0 0.0 0.00 0.00 0.00 64 1005.7
20170626230302 65 0.0 0.0 0.00 0.00 0.00 63 1005.7
20170626225303 65 0.0 0.0 0.00 0.00 0.00 62 1005.7
20170626224303 65 0.0 0.0 0.00 0.00 0.00 62 1005.7
20170626223302 65 0.0 0.0 0.00 0.00 0.00 61 1005.7
20170626222307 66 0.0 0.0 0.00 0.00 0.00 61 1005.7
20170626221302 66 0.0 0.0 0.00 0.00 0.00 61 1005.7
20170626220304 66 0.0 0.0 0.00 0.00 0.00 60 1005.7
20170626215310 66 0.0 0.0 0.00 0.00 0.00 60 1005.7
20170626214305 67 0.0 0.0 0.00 0.00 0.00 60 1005.5
20170626213302 67 0.0 0.0 0.00 0.00 0.00 59 1005.5
20170626212302 67 0.0 0.0 0.00 0.00 0.00 59 1005.7
20170626211302 67 0.0 0.0 0.00 0.00 0.00 58 1005.7
20170626210310 67 0.0 0.0 0.00 0.00 0.00 58 1005.7
20170626205305 68 0.0 0.0 0.00 0.00 0.00 57 1005.7
20170626204302 68 0.0 0.0 0.00 0.00 0.00 57 1005.7
20170626203307 68 0.0 0.0 0.00 0.00 0.00 56 1005.7
20170626202303 68 0.0 0.0 0.00 0.00 0.00 55 1005.5
20170626201306 69 0.0 0.0 0.00 0.00 0.00 54 1005.5
20170626200306 69 0.0 0.0 0.00 0.00 0.00 53 1005.3
20170626195306 69 0.0 0.0 0.00 0.00 0.00 52 1005.3
20170626194305 70 0.0 0.0 0.00 0.00 0.00 52 1005.0
20170626193306 70 0.0 0.0 0.00 0.00 0.00 51 1005.3
20170626192304 70 0.0 0.0 0.00 0.00 0.00 52 1005.0
20170626191304 71 0.0 0.0 0.00 0.00 0.00 50 1005.3
20170626190304 71 0.0 0.0 0.00 0.00 0.00 50 1005.0
20170626185306 72 0.0 0.0 0.00 0.00 0.00 50 1005.3
20170626184303 72 0.0 0.0 0.00 0.00 0.00 50 1005.3
20170626183303 72 0.0 0.0 0.00 0.00 0.00 50 1005.0
20170626182306 72 0.0 0.0 0.00 0.00 0.00 49 1005.3
20170626181306 73 0.0 0.0 0.00 0.00 0.00 49 1005.3
20170626180303 73 0.0 0.0 0.00 0.00 0.00 49 1005.3
20170626175306 73 0.0 0.0 0.00 0.00 0.00 49 1005.3
20170626174304 73 0.0 0.0 0.00 0.00 0.00 49 1005.5
20170626173305 73 0.0 0.0 0.00 0.00 0.00 48 1005.3
20170626172304 73 0.0 0.0 0.00 0.00 0.00 47 1005.3
20170626171302 74 0.0 0.0 0.00 0.00 0.00 47 1005.5
20170626170303 74 0.0 0.0 0.00 0.00 0.00 45 1005.3
20170626165306 74 0.0 0.0 0.00 0.00 0.00 45 1005.5
20170626164304 75 0.0 0.0 0.00 0.00 0.00 43 1005.5
20170626163304 75 0.0 0.0 0.00 0.00 0.00 43 1005.5
20170626162306 76 0.0 0.0 0.00 0.00 0.00 42 1005.7
20170626161306 76 0.0 0.0 0.00 0.00 0.00 43 1005.7
20170626160305 76 0.0 0.0 0.00 0.00 0.00 43 1005.7
20170626155305 75 0.0 0.0 0.00 0.00 0.00 42 1005.5
20170626154302 76 0.0 0.0 0.00 0.00 0.00 41 1005.7
20170626153303 76 0.0 0.0 0.00 0.00 0.00 42 1005.7
20170626152304 75 0.0 0.0 0.00 0.00 0.00 40 1005.7
20170626151306 75 0.0 0.0 0.00 0.00 0.00 41 1005.7
20170626150305 75 0.0 0.0 0.00 0.00 0.00 39 1005.7
20170626145305 76 0.0 0.0 0.00 0.00 0.00 39 1005.9
20170626144304 76 0.0 0.0 0.00 0.00 0.00 39 1005.9
20170626143306 76 0.0 0.0 0.00 0.00 0.00 38 1005.7
20170626142304 76 0.0 0.0 0.00 0.00 0.00 39 1005.9
20170626141307 76 0.0 0.0 0.00 0.00 0.00 38 1005.9
20170626140306 76 0.0 0.0 0.00 0.00 0.00 41 1006.2
20170626135303 75 0.0 0.0 0.00 0.00 0.00 40 1006.2
20170626134305 75 0.0 0.0 0.00 0.00 0.00 41 1006.2
20170626133306 75 0.0 0.0 0.00 0.00 0.00 40 1006.2
20170626132304 76 0.0 0.0 0.00 0.00 0.00 40 1006.2
20170626131302 76 0.0 0.0 0.00 0.00 0.00 40 1005.9
20170626130304 76 0.0 0.0 0.00 0.00 0.00 41 1005.9
20170626125302 76 0.0 0.0 0.00 0.00 0.00 40 1005.9
20170626124303 76 0.0 0.0 0.00 0.00 0.00 39 1005.9
20170626123305 76 0.0 0.0 0.00 0.00 0.00 40 1005.9
20170626122304 76 0.0 0.0 0.00 0.00 0.00 40 1006.2